DEDAF EDLV-EDLW

Flight info

Callsign DEDAF
Flight time N/A
Altitude 5000
Route DCT
Aircraft BT36/L-BDFGLORY/S

Departure

Time 2026-04-25 20:15
Airport Weeze (Niederrhein) Airport (EDLV)

Arrival

Time N/A
Airport Dortmund Airport (EDLW)
Time Latitude Longitude Altitude Speed Heading
2026-04-25 20:06 51.60001 6.14674 73 ft 0 kts 93°
2026-04-25 20:13 51.60035 6.14720 99 ft 11 kts 19°
2026-04-25 20:13 51.60042 6.14913 101 ft 25 kts 92°
2026-04-25 20:13 51.60038 6.15172 101 ft 18 kts 94°
2026-04-25 20:13 51.60035 6.15311 102 ft 6 kts 83°
2026-04-25 20:14 51.60038 6.15433 102 ft 14 kts 69°
2026-04-25 20:14 51.60133 6.15457 103 ft 17 kts
2026-04-25 20:14 51.60220 6.15392 104 ft 22 kts 271°
2026-04-25 20:14 51.60234 6.14691 140 ft 98 kts 271°
2026-04-25 20:15 51.60262 6.13495 521 ft 112 kts 272°
2026-04-25 20:15 51.60294 6.12247 1024 ft 107 kts 282°
2026-04-25 20:15 51.60804 6.11386 1370 ft 123 kts 338°
2026-04-25 20:15 51.61720 6.11273 1411 ft 141 kts
2026-04-25 20:16 51.62700 6.11498 1548 ft 139 kts 10°
2026-04-25 20:16 51.63432 6.12465 1633 ft 151 kts 61°
2026-04-25 20:16 51.63621 6.14098 1684 ft 153 kts 81°
2026-04-25 20:16 51.63695 6.15709 1672 ft 137 kts 86°
2026-04-25 20:17 51.63757 6.17202 1591 ft 132 kts 75°
2026-04-25 20:17 51.64096 6.18376 1777 ft 111 kts 46°
2026-04-25 20:17 51.64666 6.19276 1825 ft 117 kts 23°
2026-04-25 20:17 51.65463 6.19289 1672 ft 128 kts 345°
2026-04-25 20:18 51.66298 6.19357 1891 ft 114 kts 28°
2026-04-25 20:18 51.66784 6.20450 1880 ft 131 kts 67°
2026-04-25 20:18 51.67013 6.21932 1822 ft 136 kts 72°
2026-04-25 20:18 51.67224 6.23374 1928 ft 131 kts 76°
2026-04-25 20:19 51.67275 6.24878 1874 ft 139 kts 89°
2026-04-25 20:19 51.67224 6.26435 1842 ft 141 kts 91°
2026-04-25 20:19 51.66917 6.27882 1859 ft 141 kts 126°
2026-04-25 20:19 51.66132 6.28894 1707 ft 149 kts 150°
2026-04-25 20:20 51.65223 6.29627 1703 ft 142 kts 158°
2026-04-25 20:20 51.64314 6.30146 1760 ft 138 kts 163°
2026-04-25 20:20 51.63523 6.30989 1744 ft 138 kts 132°
2026-04-25 20:20 51.62840 6.32081 1743 ft 138 kts 139°
2026-04-25 20:21 51.62071 6.33008 1747 ft 138 kts 143°
2026-04-25 20:21 51.61305 6.33912 1798 ft 135 kts 143°
2026-04-25 20:21 51.60543 6.34807 1848 ft 135 kts 143°
2026-04-25 20:21 51.59786 6.35695 1899 ft 135 kts 143°
2026-04-25 20:22 51.59038 6.36570 1949 ft 135 kts 144°
2026-04-25 20:22 51.58782 6.36869 1966 ft 135 kts 143°
2026-04-25 20:22 51.57522 6.38347 2054 ft 135 kts 143°
2026-04-25 20:22 51.56763 6.39235 2105 ft 135 kts 143°
2026-04-25 20:23 51.56001 6.40127 2155 ft 136 kts 143°
2026-04-25 20:23 51.55494 6.40719 2188 ft 136 kts 144°
2026-04-25 20:23 51.54726 6.41613 2238 ft 136 kts 143°
2026-04-25 20:23 51.53957 6.42505 2280 ft 137 kts 144°
2026-04-25 20:24 51.53176 6.43412 2282 ft 139 kts 144°
2026-04-25 20:24 51.52382 6.44334 2235 ft 140 kts 144°
2026-04-25 20:24 51.51623 6.45208 2100 ft 131 kts 144°
2026-04-25 20:24 51.50898 6.46046 1961 ft 127 kts 144°
2026-04-25 20:25 51.50194 6.46868 1827 ft 129 kts 143°
2026-04-25 20:25 51.49475 6.47711 1818 ft 126 kts 144°
2026-04-25 20:25 51.48774 6.48550 1814 ft 125 kts 139°
2026-04-25 20:25 51.48237 6.49633 1811 ft 124 kts 126°
2026-04-25 20:26 51.47721 6.50742 1809 ft 124 kts 126°
2026-04-25 20:26 51.47203 6.51844 1809 ft 123 kts 126°
2026-04-25 20:26 51.46691 6.52931 1802 ft 123 kts 126°
2026-04-25 20:26 51.46250 6.54100 1806 ft 122 kts 112°
2026-04-25 20:27 51.45884 6.55335 1807 ft 122 kts 114°
2026-04-25 20:27 51.45518 6.56565 1800 ft 122 kts 114°
2026-04-25 20:27 51.45150 6.57795 1802 ft 122 kts 114°
2026-04-25 20:27 51.44782 6.59032 1802 ft 123 kts 114°
2026-04-25 20:28 51.44417 6.60266 1804 ft 122 kts 114°
2026-04-25 20:28 51.44053 6.61490 1804 ft 121 kts 114°
2026-04-25 20:28 51.43689 6.62705 1802 ft 122 kts 114°
2026-04-25 20:28 51.43319 6.63936 1805 ft 122 kts 114°
2026-04-25 20:29 51.42957 6.65148 1801 ft 122 kts 114°
2026-04-25 20:29 51.42592 6.66373 1803 ft 122 kts 114°
2026-04-25 20:29 51.42226 6.67598 1805 ft 121 kts 111°
2026-04-25 20:29 51.41992 6.68834 1806 ft 113 kts 90°